Weather in Banff

Canada     51°10′45″N   115°34′09″W
temp.,
°C
wind,
m/s
gust,
m/s
humid.,
%
clouds,
%
prec.,
mm/h
press.,
hPa
HPBL,
m
11 april, sun
sun1100:00−13nnw328826 0.4 102624
03:00−15nnw228759 0.0 102916
06:00−16nnw218617 0.0 103212
09:00−10sw116863 0.0 1029150
12:00−4ese015577 0.0 10241125
15:00−3ene1149100 0.3 10231498
18:00−4e2275100 1.1 1024691
21:00−7e2296100 1.3 1028183
12 april, mon
mon1200:00−9ene1197100 1.7 103126
03:00−11nne1195100 0.0 103414
06:00−9ne1294100 0.3 103383
09:00−7e128283 0.1 1034384
12:00−4ene2263100 0.6 10321405
15:00−3ene3257100 1.1 10311461
18:00−3e226483 2.0 1032979
21:00−8ene229479 0.4 103618
13 april, tue
tue1300:00−11ne119517 0.4 103910
03:00−12n11946 0.0 103910
06:00−13nnw11956 0.0 104011
09:00−8ssw107985 0.0 1036166
12:00−2ese115151 0.0 1031871
15:000ene224729 0.0 10281227
18:000e225119 0.0 10271177
21:00−6ene2284100 0.0 103216
14 april, wed
wed1400:00−7ne118323 0.0 103314
03:00−7ne1183100 0.0 103311
06:00−7nne117999 0.0 103210
09:00−3ese116195 0.0 1029158
12:00+2e227177 0.0 1024696
15:00+3e2269100 0.1 1023919
18:00+3e226787 0.3 1021830
21:00−3ene22945 0.0 102717
15 april, thu
thu1500:00−4nne11969 0.0 102710
03:00−4n11936 0.0 102611
06:00−5nne11935 0.0 102710
09:000ene11745 0.0 1023190
12:00+5e225757 0.0 10201235
15:00+5ene225798 0.1 10191181
18:00+4ene337478 0.4 1020685
21:00−1ene2399100 0.9 1025210